GEC8223 MMMY-EDDF

Flight info

Callsign GEC8223
Flight time N/A
Altitude 30000
Route URTAN1A URTAN UJ11E NLD DCT KH03C/N0492F310 DCT KF21E DCT KM30G DCT KM39I DCT KK48K DCT ENL DCT VHP/N0485F330 DCT DJB DCT DKK DCT KB03E DCT YQX DCT ELSIR/M082F350 DCT 50N050W 52N040W 53N030W 53N020W DCT MALOT DCT GISTI/N0476F350 DCT MORAG DCT KAMJU DCT REDFA DCT TACHA DCT NOLRU DCT DIXAT DIXAT1A
Aircraft B77L/H-SDE1E2E3FGHIJ2J3J4J5M1RWXY/LB1D1

Departure

Time N/A
Airport Monterrey International Airport (MMMY)

Arrival

Time 2026-04-15 13:28
Airport Frankfurt Main Airport (EDDF)
Time Latitude Longitude Altitude Speed Heading
2026-04-15 12:34 52.22102 1.53152 35025 ft 496 kts 106°
2026-04-15 12:35 52.21507 1.58721 35058 ft 496 kts 106°
2026-04-15 12:35 52.20318 1.69767 35061 ft 498 kts 106°
2026-04-15 12:36 52.19107 1.80916 35065 ft 499 kts 107°
2026-04-15 12:36 52.17885 1.92071 35064 ft 500 kts 107°
2026-04-15 12:37 52.16658 2.03175 35064 ft 500 kts 106°
2026-04-15 12:37 52.15412 2.14347 35078 ft 501 kts 106°
2026-04-15 12:38 52.14152 2.25547 35080 ft 502 kts 106°
2026-04-15 12:38 52.12889 2.36691 35086 ft 503 kts 106°
2026-04-15 12:39 52.12199 2.48083 35050 ft 513 kts 91°
2026-04-15 12:39 52.13361 2.59609 35085 ft 520 kts 76°
2026-04-15 12:40 52.15576 2.70800 35092 ft 521 kts 75°
2026-04-15 12:40 52.17789 2.82059 35096 ft 521 kts 76°
2026-04-15 12:41 52.19905 2.93303 35098 ft 521 kts 76°
2026-04-15 12:41 52.22003 3.04611 35091 ft 520 kts 76°
2026-04-15 12:42 52.24069 3.15929 35109 ft 517 kts 79°
2026-04-15 12:42 52.24567 3.21639 35128 ft 511 kts 92°
2026-04-15 12:42 52.24381 3.27422 35114 ft 505 kts 103°
2026-04-15 12:42 52.23632 3.32981 35102 ft 498 kts 114°
2026-04-15 12:43 52.22384 3.38231 35123 ft 493 kts 117°
2026-04-15 12:43 52.19793 3.48583 35101 ft 496 kts 116°
2026-04-15 12:44 52.17211 3.59076 35124 ft 499 kts 116°
2026-04-15 12:44 52.14660 3.69587 35127 ft 502 kts 116°
2026-04-15 12:45 52.12091 3.80189 35117 ft 503 kts 116°
2026-04-15 12:45 52.09517 3.90756 35120 ft 504 kts 116°
2026-04-15 12:46 52.06921 4.01351 35128 ft 504 kts 115°
2026-04-15 12:46 52.04310 4.11950 35126 ft 504 kts 115°
2026-04-15 12:47 52.01705 4.22475 35151 ft 504 kts 115°
2026-04-15 12:47 51.99078 4.33037 35158 ft 504 kts 115°
2026-04-15 12:48 51.96461 4.43507 35154 ft 503 kts 116°
2026-04-15 12:48 51.93853 4.53910 34534 ft 493 kts 116°
2026-04-15 12:48 51.92552 4.59073 33695 ft 495 kts 116°
2026-04-15 12:49 51.91254 4.64212 33375 ft 490 kts 116°
2026-04-15 12:49 51.89966 4.69295 33200 ft 496 kts 116°
2026-04-15 12:49 51.88644 4.74492 33153 ft 502 kts 116°
2026-04-15 12:50 51.85963 4.85014 33152 ft 506 kts 116°
2026-04-15 12:50 51.83274 4.95533 33151 ft 505 kts 115°
2026-04-15 12:51 51.80592 5.05976 33159 ft 505 kts 115°
2026-04-15 12:51 51.77882 5.16478 33163 ft 505 kts 115°
2026-04-15 12:52 51.75176 5.26907 33161 ft 505 kts 115°
2026-04-15 12:52 51.72454 5.37356 33153 ft 505 kts 115°
2026-04-15 12:53 51.69718 5.47806 33162 ft 507 kts 115°
2026-04-15 12:53 51.66973 5.58242 33148 ft 508 kts 115°
2026-04-15 12:54 51.64201 5.68737 33162 ft 509 kts 115°
2026-04-15 12:54 51.61427 5.79189 33167 ft 510 kts 115°
2026-04-15 12:55 51.58618 5.89729 33154 ft 512 kts 115°
2026-04-15 12:55 51.55819 6.00181 33181 ft 511 kts 115°
2026-04-15 12:56 51.53465 6.08936 33183 ft 510 kts 115°
2026-04-15 12:56 51.50637 6.19415 33179 ft 510 kts 115°
2026-04-15 12:57 51.47916 6.29932 33183 ft 510 kts 112°
2026-04-15 12:57 51.45377 6.40483 33184 ft 510 kts 112°
2026-04-15 12:58 51.42808 6.51081 33185 ft 509 kts 112°
2026-04-15 12:58 51.40195 6.61662 33185 ft 509 kts 112°
2026-04-15 12:59 51.36265 6.77416 33191 ft 510 kts 112°
2026-04-15 12:59 51.33621 6.87967 33200 ft 511 kts 112°
2026-04-15 13:00 51.30962 6.98534 32206 ft 524 kts 112°
2026-04-15 13:00 51.29598 7.03940 31326 ft 524 kts 112°
2026-04-15 13:00 51.28191 7.09290 30463 ft 517 kts 117°
2026-04-15 13:01 51.26204 7.14011 29790 ft 508 kts 133°
2026-04-15 13:01 51.23581 7.17735 29117 ft 497 kts 148°
2026-04-15 13:01 51.20605 7.20226 28525 ft 483 kts 159°
2026-04-15 13:01 51.17551 7.22394 27936 ft 478 kts 157°
2026-04-15 13:02 51.14554 7.24699 27340 ft 473 kts 155°
2026-04-15 13:02 51.11617 7.27043 26758 ft 469 kts 155°
2026-04-15 13:02 51.08730 7.29423 26164 ft 465 kts 154°
2026-04-15 13:02 51.05905 7.31776 25616 ft 461 kts 154°
2026-04-15 13:03 51.03062 7.34133 25054 ft 457 kts 155°
2026-04-15 13:03 51.00249 7.36453 24489 ft 453 kts 155°
2026-04-15 13:03 50.97453 7.38752 23939 ft 451 kts 155°
2026-04-15 13:03 50.94671 7.41036 23297 ft 448 kts 155°
2026-04-15 13:04 50.91912 7.43300 22699 ft 444 kts 155°
2026-04-15 13:04 50.89215 7.45510 22149 ft 440 kts 155°
2026-04-15 13:04 50.86499 7.47732 21590 ft 435 kts 155°
2026-04-15 13:04 50.83819 7.49922 21047 ft 431 kts 155°
2026-04-15 13:05 50.81155 7.52094 20514 ft 427 kts 154°
2026-04-15 13:05 50.78523 7.54240 19995 ft 424 kts 154°
2026-04-15 13:05 50.75935 7.56348 19477 ft 421 kts 154°
2026-04-15 13:05 50.73335 7.58462 18954 ft 418 kts 154°
2026-04-15 13:06 50.70745 7.60565 18417 ft 416 kts 154°
2026-04-15 13:06 50.68176 7.62648 17830 ft 413 kts 154°
2026-04-15 13:06 50.65631 7.64709 17312 ft 409 kts 154°
2026-04-15 13:06 50.63143 7.66723 16823 ft 405 kts 154°
2026-04-15 13:07 50.60648 7.68739 16317 ft 401 kts 154°
2026-04-15 13:07 50.58175 7.70734 15867 ft 396 kts 154°
2026-04-15 13:07 50.55726 7.72706 15429 ft 390 kts 154°
2026-04-15 13:07 50.53322 7.74640 14994 ft 387 kts 154°
2026-04-15 13:08 50.50931 7.76561 14575 ft 384 kts 154°
2026-04-15 13:08 50.48580 7.78450 14151 ft 382 kts 154°
2026-04-15 13:08 50.46214 7.80348 13688 ft 380 kts 154°
2026-04-15 13:08 50.43851 7.82245 13213 ft 378 kts 154°
2026-04-15 13:09 50.41671 7.84411 12868 ft 373 kts 145°
2026-04-15 13:09 50.39641 7.86955 12513 ft 373 kts 141°
2026-04-15 13:09 50.37647 7.89588 12163 ft 375 kts 141°
2026-04-15 13:09 50.35672 7.92163 11843 ft 370 kts 142°
2026-04-15 13:10 50.33684 7.94691 11472 ft 363 kts 142°
2026-04-15 13:10 50.31718 7.97141 11129 ft 356 kts 143°
2026-04-15 13:10 50.29794 7.99517 10791 ft 349 kts 143°
2026-04-15 13:10 50.27905 8.01853 10458 ft 339 kts 141°
2026-04-15 13:11 50.26397 8.04579 10195 ft 329 kts 120°
2026-04-15 13:11 50.25642 8.07804 10189 ft 312 kts 105°
2026-04-15 13:11 50.25139 8.11041 10130 ft 299 kts 104°
2026-04-15 13:11 50.24646 8.14179 10177 ft 294 kts 107°
2026-04-15 13:12 50.23750 8.17017 10227 ft 293 kts 132°
2026-04-15 13:12 50.22181 8.18952 10234 ft 292 kts 156°
2026-04-15 13:12 50.20261 8.19917 10161 ft 289 kts 169°
2026-04-15 13:12 50.18282 8.20513 9876 ft 288 kts 172°
2026-04-15 13:13 50.16315 8.21006 9560 ft 283 kts 173°
2026-04-15 13:13 50.14399 8.21449 9196 ft 280 kts 173°
2026-04-15 13:13 50.12468 8.21887 8774 ft 279 kts 173°
2026-04-15 13:13 50.10551 8.22314 8393 ft 277 kts 173°
2026-04-15 13:14 50.08650 8.22736 8063 ft 273 kts 173°
2026-04-15 13:14 50.06787 8.22751 7538 ft 269 kts 195°
2026-04-15 13:14 50.05148 8.21454 7127 ft 267 kts 223°
2026-04-15 13:14 50.04086 8.19130 6771 ft 264 kts 245°
2026-04-15 13:15 50.03498 8.16410 6359 ft 265 kts 255°
2026-04-15 13:15 50.03121 8.13568 6252 ft 270 kts 258°
2026-04-15 13:15 50.02782 8.10721 6225 ft 270 kts 258°
2026-04-15 13:15 50.02448 8.07863 6232 ft 267 kts 258°
2026-04-15 13:16 50.01957 8.05087 6230 ft 265 kts 248°
2026-04-15 13:16 50.01255 8.02421 6234 ft 267 kts 246°
2026-04-15 13:16 50.00544 7.99786 6225 ft 268 kts 246°
2026-04-15 13:16 49.99844 7.97099 6228 ft 268 kts 247°
2026-04-15 13:17 49.99162 7.94398 6229 ft 268 kts 248°
2026-04-15 13:17 49.98457 7.91739 6219 ft 262 kts 239°
2026-04-15 13:17 49.97249 7.89654 6082 ft 262 kts 212°
2026-04-15 13:17 49.95549 7.88731 5854 ft 260 kts 183°
2026-04-15 13:18 49.93810 7.89185 5585 ft 259 kts 155°
2026-04-15 13:18 49.92405 7.90911 5306 ft 261 kts 127°
2026-04-15 13:18 49.91451 7.93277 4924 ft 256 kts 129°
2026-04-15 13:18 49.90054 7.94993 4495 ft 259 kts 155°
2026-04-15 13:19 49.88387 7.96030 4319 ft 256 kts 159°
2026-04-15 13:19 49.86783 7.97154 4065 ft 250 kts 143°
2026-04-15 13:19 49.85694 7.99165 4033 ft 251 kts 114°
2026-04-15 13:19 49.85387 8.01855 3994 ft 259 kts 84°
2026-04-15 13:20 49.85977 8.04499 4000 ft 264 kts 57°
2026-04-15 13:20 49.87322 8.06409 4005 ft 260 kts 28°
2026-04-15 13:20 49.88997 8.07049 3989 ft 246 kts 358°
2026-04-15 13:20 49.90567 8.06327 3996 ft 231 kts 325°
2026-04-15 13:21 49.91666 8.04554 4013 ft 228 kts 304°
2026-04-15 13:21 49.92661 8.02644 3974 ft 228 kts 324°
2026-04-15 13:21 49.94110 8.01746 4009 ft 228 kts 359°
2026-04-15 13:21 49.95631 8.02205 3991 ft 227 kts 31°
2026-04-15 13:22 49.96738 8.03873 4015 ft 222 kts 65°
2026-04-15 13:22 49.97082 8.06176 4002 ft 218 kts 92°
2026-04-15 13:22 49.96978 8.08530 4018 ft 219 kts 97°
2026-04-15 13:22 49.96806 8.10891 3996 ft 218 kts 98°
2026-04-15 13:23 49.96629 8.13182 3998 ft 214 kts 98°
2026-04-15 13:23 49.96450 8.15474 3994 ft 213 kts 98°
2026-04-15 13:23 49.96310 8.17750 3971 ft 210 kts 87°
2026-04-15 13:23 49.96652 8.19987 4019 ft 218 kts 72°
2026-04-15 13:24 49.97133 8.22188 4014 ft 210 kts 72°
2026-04-15 13:24 49.97610 8.24266 3995 ft 200 kts 71°
2026-04-15 13:24 49.98095 8.26308 3686 ft 200 kts 71°
2026-04-15 13:24 49.98573 8.28304 3417 ft 198 kts 71°
2026-04-15 13:25 49.99051 8.30294 3117 ft 195 kts 71°
2026-04-15 13:25 49.99520 8.32252 2848 ft 193 kts 71°
2026-04-15 13:25 49.99992 8.34215 2554 ft 191 kts 71°
2026-04-15 13:25 50.00443 8.36094 2291 ft 183 kts 70°
2026-04-15 13:26 50.00883 8.37934 2048 ft 182 kts 70°
2026-04-15 13:26 50.01317 8.39745 1760 ft 174 kts 70°
2026-04-15 13:26 50.01720 8.41424 1528 ft 158 kts 70°
2026-04-15 13:26 50.02085 8.42952 1307 ft 145 kts 70°
2026-04-15 13:27 50.02444 8.44447 1093 ft 150 kts 70°
2026-04-15 13:27 50.02806 8.45970 840 ft 149 kts 69°
2026-04-15 13:27 50.03166 8.47452 653 ft 145 kts 69°
2026-04-15 13:27 50.03510 8.48908 469 ft 146 kts 69°
2026-04-15 13:28 50.03865 8.50387 325 ft 143 kts 69°
2026-04-15 13:28 50.04171 8.51652 334 ft 99 kts 69°
2026-04-15 13:28 50.04357 8.52429 358 ft 43 kts 69°
2026-04-15 13:28 50.04394 8.52738 358 ft 21 kts 91°
2026-04-15 13:29 50.04380 8.52931 360 ft 16 kts 99°
2026-04-15 13:29 50.04362 8.53100 361 ft 16 kts 99°
2026-04-15 13:29 50.04353 8.53271 368 ft 16 kts 87°
2026-04-15 13:29 50.04382 8.53435 378 ft 16 kts 71°
2026-04-15 13:30 50.04402 8.53612 380 ft 19 kts 84°
2026-04-15 13:30 50.04415 8.53821 380 ft 19 kts 84°
2026-04-15 13:30 50.04430 8.54031 380 ft 19 kts 84°
2026-04-15 13:30 50.04444 8.54240 380 ft 19 kts 84°
2026-04-15 13:31 50.04454 8.54454 374 ft 21 kts 95°
2026-04-15 13:31 50.04394 8.54674 371 ft 24 kts 129°
2026-04-15 13:31 50.04241 8.54812 359 ft 27 kts 160°
2026-04-15 13:31 50.04112 8.54886 362 ft 12 kts 160°
2026-04-15 13:32 50.04035 8.54928 362 ft 12 kts 168°
2026-04-15 13:32 50.03976 8.54835 362 ft 16 kts 246°
2026-04-15 13:32 50.03993 8.54685 359 ft 17 kts 332°
2026-04-15 13:32 50.04085 8.54638 362 ft 11 kts 13°
2026-04-15 13:33 50.04116 8.54718 363 ft 6 kts 69°
2026-04-15 13:33 50.04118 8.54725 362 ft 0 kts 69°